Precipitable_Water
0.57 0.50 0.43 0.42 0.36 0.29 0.26 0.24 0.24 0.29 0.34 0.30 0.36 0.43 0.58 0.72 0.78 0.76 0.77 0.78 0.79 0.78 0.86 0.90 0.94 1.02 1.02 0.98 0.92 0.90 0.86 0.91 0.98 0.98 0.94 0.92 0.87 0.91 0.91 0.90 0.88 0.86 0.83 0.82
0.48 0.44 0.54 0.45 0.37 0.30 0.27 0.25 0.26 0.32 0.34 0.31 0.38 0.44 0.55 0.63 0.63 0.68 0.73 0.79 0.79 0.77 0.80 0.84 0.89 0.96 0.99 0.97 0.96 0.94 0.91 0.93 0.99 1.04 1.00 0.95 0.92 0.94 0.93 0.90 0.90 0.87 0.85 0.83
0.42 0.46 0.55 0.47 0.35 0.29 0.26 0.25 0.26 0.27 0.31 0.34 0.35 0.40 0.48 0.62 0.69 0.77 0.85 0.90 0.87 0.78 0.69 0.73 0.79 0.89 0.97 0.95 0.93 0.93 0.94 0.92 0.99 1.04 1.02 0.97 0.96 0.94 0.86 0.84 0.85 0.87 0.88 0.84
0.50 0.53 0.46 0.42 0.33 0.29 0.22 0.30 0.29 0.28 0.26 0.22 0.32 0.23 0.38 0.49 0.54 0.66 0.70 0.79 0.84 0.81 0.78 0.71 0.68 0.75 0.87 0.89 0.92 0.90 0.91 0.93 0.94 0.99 0.91 0.88 0.82 0.77 0.82 0.84 0.89 0.90 0.92 0.90
0.44 0.46 0.43 0.35 0.34 0.33 0.25 0.31 0.29 0.30 0.26 0.25 0.27 0.21 0.24 0.39 0.41 0.49 0.61 0.68 0.78 0.82 0.79 0.70 0.67 0.73 0.84 0.91 0.89 0.89 0.92 0.96 0.98 0.99 0.97 0.92 0.86 0.87 0.89 0.90 0.89 0.91 0.93 0.93
0.43 0.50 0.44 0.37 0.35 0.35 0.34 0.30 0.30 0.29 0.27 0.20 0.24 0.21 0.18 0.25 0.32 0.42 0.54 0.62 0.71 0.80 0.79 0.73 0.71 0.76 0.82 0.94 0.97 0.97 0.97 0.96 1.00 1.00 0.98 0.95 0.90 0.88 0.87 0.89 0.87 0.89 0.91 0.92
0.38 0.40 0.41 0.38 0.31 0.34 0.32 0.28 0.23 0.21 0.21 0.20 0.25 0.21 0.19 0.23 0.28 0.32 0.37 0.47 0.63 0.77 0.80 0.74 0.67 0.66 0.73 0.81 0.92 0.93 0.90 0.90 0.97 1.01 0.98 0.98 0.96 0.94 0.91 0.92 0.91 0.90 0.88 0.88
0.27 0.26 0.37 0.38 0.31 0.27 0.28 0.27 0.23 0.18 0.17 0.18 0.25 0.21 0.20 0.24 0.30 0.40 0.42 0.42 0.59 0.71 0.82 0.78 0.75 0.67 0.70 0.75 0.80 0.88 0.88 0.89 0.94 0.95 0.96 0.99 1.02 0.98 0.97 0.97 0.97 0.95 0.93 0.91
0.30 0.29 0.41 0.37 0.35 0.31 0.26 0.22 0.28 0.23 0.22 0.19 0.21 0.24 0.29 0.30 0.29 0.39 0.41 0.47 0.58 0.71 0.81 0.85 0.85 0.82 0.73 0.77 0.81 0.88 0.93 0.94 0.97 0.96 0.98 0.98 0.93 0.97 0.98 0.99 1.01 0.99 0.99 0.95
0.38 0.27 0.37 0.34 0.35 0.32 0.26 0.28 0.20 0.22 0.17 0.16 0.19 0.20 0.21 0.27 0.27 0.34 0.38 0.46 0.54 0.69 0.81 0.90 0.93 0.93 0.94 0.93 0.93 0.96 0.99 0.98 0.96 0.97 0.98 0.96 0.91 0.91 0.95 0.99 0.98 1.00 1.00 0.99
0.43 0.32 0.31 0.33 0.29 0.25 0.25 0.23 0.24 0.22 0.20 0.15 0.14 0.17 0.28 0.29 0.32 0.30 0.36 0.44 0.50 0.58 0.66 0.75 0.84 0.90 0.94 1.00 1.03 1.03 1.04 1.02 0.99 1.00 1.00 0.97 0.94 0.91 0.94 0.95 0.99 1.02 1.03 1.01
0.46 0.36 0.27 0.28 0.36 0.37 0.31 0.26 0.24 0.19 0.17 0.18 0.17 0.17 0.32 0.33 0.35 0.34 0.34 0.38 0.44 0.50 0.60 0.68 0.75 0.83 0.86 0.89 0.95 0.97 1.02 1.03 1.08 1.09 1.07 1.03 1.03 1.02 0.96 0.95 0.98 1.01 0.99 1.02
0.45 0.34 0.25 0.26 0.31 0.34 0.29 0.29 0.27 0.25 0.24 0.18 0.16 0.16 0.31 0.34 0.35 0.36 0.35 0.38 0.40 0.44 0.50 0.58 0.68 0.73 0.80 0.82 0.86 0.91 0.95 0.94 0.93 0.98 1.04 1.04 1.05 1.04 1.00 1.00 1.02 1.02 1.03 1.04
0.49 0.37 0.28 0.21 0.25 0.30 0.26 0.28 0.28 0.25 0.20 0.18 0.20 0.21 0.27 0.28 0.32 0.35 0.36 0.39 0.40 0.43 0.47 0.51 0.57 0.65 0.72 0.77 0.81 0.83 0.87 0.91 0.92 0.94 0.96 1.00 1.02 1.04 1.04 1.05 1.05 1.03 1.03 1.01
0.46 0.33 0.36 0.37 0.37 0.35 0.31 0.29 0.28 0.26 0.26 0.21 0.21 0.21 0.25 0.31 0.32 0.34 0.35 0.37 0.38 0.40 0.44 0.48 0.51 0.56 0.62 0.67 0.71 0.75 0.78 0.84 0.91 0.93 0.95 0.96 1.00 1.07 1.08 1.07 1.09 1.09 1.06 1.03
0.45 0.35 0.39 0.34 0.39 0.36 0.31 0.31 0.30 0.29 0.29 0.28 0.27 0.26 0.32 0.32 0.37 0.37 0.35 0.35 0.34 0.35 0.39 0.44 0.48 0.52 0.56 0.62 0.65 0.69 0.72 0.76 0.81 0.85 0.91 0.97 1.01 1.03 1.05 1.09 1.08 1.09 1.10 1.07
0.39 0.37 0.35 0.29 0.38 0.35 0.28 0.30 0.30 0.30 0.31 0.31 0.25 0.29 0.33 0.33 0.34 0.37 0.40 0.38 0.37 0.34 0.34 0.37 0.40 0.45 0.50 0.54 0.62 0.64 0.66 0.71 0.74 0.77 0.82 0.87 0.92 0.97 1.02 1.07 1.07 1.15 1.10 1.09
0.33 0.34 0.35 0.30 0.35 0.22 0.29 0.37 0.36 0.33 0.33 0.33 0.33 0.33 0.34 0.34 0.37 0.38 0.42 0.42 0.41 0.41 0.40 0.38 0.38 0.39 0.41 0.43 0.47 0.52 0.56 0.58 0.60 0.62 0.64 0.69 0.72 0.76 0.81 0.85 0.90 1.00 1.05 1.04
0.35 0.34 0.30 0.26 0.26 0.30 0.32 0.35 0.35 0.35 0.33 0.37 0.34 0.35 0.36 0.37 0.37 0.37 0.39 0.42 0.42 0.42 0.43 0.44 0.44 0.43 0.43 0.44 0.45 0.46 0.47 0.46 0.47 0.46 0.47 0.49 0.51 0.55 0.62 0.69 0.72 0.76 0.79 0.82
0.28 0.33 0.30 0.28 0.24 0.20 0.28 0.37 0.42 0.42 0.29 0.41 0.39 0.37 0.36 0.37 0.32 0.36 0.41 0.41 0.40 0.41 0.42 0.43 0.44 0.45 0.45 0.46 0.48 0.47 0.46 0.47 0.48 0.49 0.50 0.52 0.52 0.55 0.57 0.60 0.61 0.65 0.69 0.72
0.13 0.18 0.20 0.24 0.23 0.27 0.33 0.39 0.43 0.29 0.27 0.39 0.40 0.39 0.39 0.38 0.38 0.40 0.41 0.42 0.42 0.41 0.41 0.43 0.43 0.43 0.44 0.46 0.47 0.48 0.48 0.47 0.48 0.49 0.51 0.52 0.54 0.55 0.60 0.63 0.64 0.64 0.64 0.64
0.09 0.10 0.12 0.17 0.18 0.18 0.35 0.35 0.31 0.36 0.39 0.40 0.40 0.41 0.40 0.41 0.42 0.40 0.39 0.39 0.40 0.40 0.41 0.42 0.43 0.43 0.45 0.47 0.47 0.47 0.48 0.50 0.50 0.51 0.51 0.52 0.53 0.54 0.56 0.59 0.62 0.64 0.64 0.62
0.08 0.11 0.11 0.13 0.15 0.25 0.31 0.34 0.38 0.37 0.35 0.36 0.36 0.40 0.44 0.44 0.44 0.44 0.42 0.41 0.40 0.40 0.40 0.41 0.41 0.41 0.42 0.43 0.44 0.43 0.45 0.47 0.48 0.49 0.49 0.51 0.53 0.53 0.54 0.57 0.58 0.58 0.60 0.59
0.13 0.15 0.11 0.10 0.10 0.12 0.17 0.22 0.25 0.31 0.32 0.32 0.33 0.32 0.32 0.30 0.31 0.33 0.36 0.36 0.37 0.36 0.37 0.38 0.38 0.37 0.35 0.36 0.37 0.37 0.38 0.41 0.43 0.43 0.44 0.46 0.47 0.50 0.53 0.56 0.58 0.58 0.58 0.58
0.17 0.16 0.13 0.11 0.10 0.11 0.12 0.13 0.16 0.16 0.18 0.21 0.24 0.26 0.27 0.26 0.26 0.26 0.27 0.28 0.29 0.29 0.30 0.31 0.30 0.30 0.31 0.33 0.33 0.34 0.35 0.36 0.35 0.35 0.36 0.38 0.41 0.43 0.46 0.50 0.54 0.57 0.61 0.62
0.19 0.16 0.12 0.09 0.10 0.09 0.09 0.11 0.13 0.13 0.13 0.13 0.12 0.11 0.12 0.13 0.13 0.16 0.17 0.20 0.21 0.23 0.24 0.23 0.24 0.24 0.24 0.25 0.26 0.28 0.29 0.30 0.30 0.29 0.30 0.30 0.31 0.33 0.36 0.39 0.43 0.51 0.57 0.61
Wind_Speed
34 32 41 50 49 45 38 39 38 31 32 28 27 27 30 29 26 26 26 27 26 27 26 27 28 28 27 25 24 23 23 22 21 19 18 17 16 15 13 13 13 12 12 12
29 32 39 48 41 40 35 37 32 28 30 27 25 27 29 30 29 27 28 28 28 26 27 27 28 29 28 26 25 23 23 23 21 21 19 17 16 15 14 13 13 12 13 13
27 33 36 42 39 38 34 40 33 32 30 24 25 22 26 27 25 26 26 27 27 28 27 28 28 29 29 28 26 25 24 23 23 21 20 18 17 15 15 14 13 13 12 12
26 29 37 38 35 37 33 34 32 32 29 28 25 25 25 27 26 27 27 28 29 29 28 28 28 29 29 28 27 25 24 24 23 23 22 21 19 17 16 15 13 13 12 11
23 28 34 29 33 34 32 32 31 28 26 25 24 20 26 26 28 29 29 29 30 30 29 29 29 29 29 29 28 27 26 25 24 24 23 22 20 19 17 16 15 14 13 13
21 25 24 26 26 28 32 28 24 24 24 23 25 24 24 29 30 27 28 29 30 30 30 29 28 29 30 30 29 28 27 26 25 25 24 24 23 21 19 18 17 16 15 14
19 19 20 22 24 22 27 31 21 19 20 23 24 24 26 26 29 31 30 30 31 31 31 30 29 30 31 31 31 29 28 28 27 26 26 25 24 24 23 21 20 19 18 17
17 19 19 19 22 24 25 26 25 22 24 25 23 28 26 27 20 26 29 29 29 31 31 31 30 29 31 31 32 32 30 29 28 28 27 26 26 25 25 24 23 22 21 20
16 15 18 18 19 21 23 23 23 21 20 20 24 24 26 23 22 19 23 26 28 30 32 32 30 30 30 31 31 32 31 30 30 29 28 27 26 28 27 26 25 24 24 23
12 15 17 18 18 18 21 23 20 20 21 21 23 23 24 24 24 21 21 23 24 25 27 28 30 31 31 32 32 32 33 32 31 31 30 29 28 28 29 28 27 27 26 25
10 15 18 18 17 19 19 20 18 20 20 23 21 25 23 22 25 25 23 24 24 25 27 28 29 30 30 31 32 33 34 34 33 33 32 32 30 30 30 31 30 30 29 28
10 11 14 19 19 19 20 20 20 21 21 21 23 23 23 22 21 24 23 24 25 25 26 27 28 30 30 30 30 31 32 34 35 36 36 35 34 33 33 32 33 32 32 32
9 12 13 12 16 21 22 22 21 19 19 22 21 23 23 23 22 22 23 23 24 24 25 27 27 28 30 30 31 31 31 32 33 34 37 37 37 36 36 36 35 35 35 35
10 10 14 17 18 17 22 22 21 20 19 21 22 21 21 22 22 23 22 24 23 23 24 25 27 29 29 30 31 31 32 32 33 33 34 36 38 38 38 38 38 38 38 38
9 11 13 14 15 16 19 23 24 22 21 20 22 24 23 21 22 22 22 24 25 25 23 24 25 26 27 29 31 32 33 33 34 34 34 35 36 37 39 40 40 40 40 40
9 12 14 14 14 15 19 23 25 25 24 22 22 22 22 23 20 21 23 22 24 25 26 26 25 26 27 28 29 30 32 34 35 35 36 36 37 37 37 40 41 42 41 42
11 11 13 15 14 14 19 22 23 25 26 25 27 25 26 23 24 22 22 22 25 26 26 27 27 26 27 28 30 31 31 32 34 35 37 38 38 38 39 39 39 41 43 44
15 14 15 16 16 18 17 17 21 25 26 27 25 24 25 25 24 24 22 21 22 24 26 27 27 28 28 29 29 30 31 33 34 34 35 37 40 42 42 43 43 44 44 44
16 17 16 17 19 18 19 20 19 22 24 28 27 26 25 25 26 27 25 23 23 23 25 26 26 27 27 28 29 30 31 31 32 33 35 36 38 39 41 43 44 45 47 47
9 13 16 16 18 20 19 19 18 20 23 24 25 27 28 28 28 27 27 28 27 26 25 25 26 27 28 28 28 29 29 30 30 31 33 34 35 37 38 40 40 42 44 46
5 7 13 18 20 23 21 20 20 19 20 20 25 26 27 29 29 29 29 29 29 30 30 30 30 31 31 32 32 33 33 33 34 35 35 36 36 37 38 38 39 40 41 42
5 5 8 9 15 21 20 19 22 22 19 19 19 23 26 27 28 29 31 32 32 32 32 32 33 33 34 34 35 36 37 39 39 39 39 39 39 40 41 41 41 42 42 42
9 9 8 9 11 11 16 19 21 21 22 22 22 20 21 23 26 29 29 31 33 35 36 36 37 38 38 38 39 40 41 42 43 43 43 44 44 44 44 44 44 45 45 45
12 12 12 11 12 14 15 15 19 22 23 23 23 24 25 26 26 27 26 28 29 30 32 33 35 37 39 40 41 42 43 43 44 44 45 45 46 46 46 47 47 47 47 47
14 12 14 17 17 15 17 17 17 17 19 22 24 26 27 28 29 29 30 30 31 32 33 33 34 35 37 38 39 40 41 42 43 44 45 46 46 47 47 48 48 49 51 51
16 16 16 17 17 15 16 17 19 18 19 20 20 22 24 26 28 29 30 31 33 33 34 34 35 36 37 37 38 39 40 41 43 43 44 45 45 45 45 46 47 48 49 50
Wind_Direction
176 177 183 182 186 185 186 187 187 193 194 191 195 193 192 193 192 194 195 194 195 194 194 194 194 193 193 193 192 193 193 195 197 198 197 198 200 202 205 208 211 215 215 218
177 181 180 181 183 182 186 183 189 190 191 192 196 195 195 197 199 200 198 198 197 196 196 196 197 196 197 196 196 197 199 200 202 202 204 205 206 208 212 214 217 219 223 226
176 180 174 175 178 180 187 186 189 188 189 194 192 201 200 202 202 203 204 202 201 200 200 201 199 200 200 201 202 203 204 205 206 205 206 209 210 212 215 218 220 223 225 230
160 172 174 175 181 183 184 189 188 187 190 195 200 204 209 204 205 206 204 203 203 204 206 205 204 204 204 206 206 207 206 207 208 209 211 211 212 214 218 220 222 223 227 232
154 157 165 172 184 185 189 187 188 193 193 196 207 203 212 205 209 209 210 208 208 208 208 208 208 208 207 207 208 208 209 211 211 213 214 215 217 220 223 224 225 227 230 234
156 161 166 178 178 186 185 184 186 193 199 208 208 207 213 210 212 212 214 214 213 212 212 212 212 211 211 211 211 211 213 214 216 217 218 219 221 223 224 226 228 231 235 237
152 170 174 174 176 184 182 180 188 195 202 209 214 212 216 220 220 218 218 219 217 215 215 214 214 213 213 213 215 216 217 218 220 221 222 224 226 227 229 230 231 233 236 240
164 167 179 184 184 188 189 191 193 194 205 208 209 217 217 222 224 223 223 221 220 219 217 217 217 216 215 216 216 219 220 222 223 224 225 228 230 231 232 234 235 237 239 243
165 176 181 177 183 185 194 199 201 198 215 211 216 224 225 222 222 227 223 219 221 220 219 219 220 220 218 218 218 220 222 224 225 226 229 231 234 233 234 237 239 241 243 246
183 177 189 193 189 195 194 194 200 211 206 214 225 227 224 223 228 229 224 223 224 222 221 221 222 222 222 221 222 222 224 226 228 229 231 234 235 236 237 239 241 242 245 248
178 187 198 194 201 198 198 203 207 209 215 216 219 228 224 226 227 230 227 225 225 224 223 224 223 224 225 225 226 227 228 229 231 232 234 235 238 239 240 242 243 246 248 250
181 187 188 202 208 209 207 211 212 215 222 226 226 232 227 225 227 227 228 228 227 227 226 226 226 226 227 228 229 231 232 233 236 237 237 238 240 242 243 244 246 247 249 251
197 205 195 213 221 213 214 216 214 216 221 223 222 233 228 226 226 227 227 229 228 228 228 229 228 229 230 231 233 235 236 238 240 241 241 241 242 244 245 246 248 249 250 252
215 208 210 211 220 214 213 213 213 217 222 223 228 225 228 225 226 228 228 229 229 229 230 231 231 233 234 235 236 238 240 241 243 244 244 245 245 246 247 248 250 251 252 253
225 214 218 216 222 220 221 218 217 220 225 226 234 231 227 224 225 227 230 231 232 232 233 234 234 235 237 239 240 242 243 244 245 246 247 248 249 249 249 249 250 252 252 253
242 222 223 225 229 229 230 229 230 227 230 234 232 234 228 226 227 228 232 234 233 236 237 238 239 240 241 242 243 246 247 247 248 249 249 251 251 252 252 252 252 253 253 254
239 233 228 232 235 232 242 234 230 231 234 233 232 234 226 230 229 231 233 235 236 238 240 241 241 243 245 247 247 249 250 251 251 251 252 253 253 254 254 255 256 254 255 255
239 235 236 236 233 233 242 239 237 236 235 235 236 234 232 231 231 230 234 236 238 240 241 243 244 246 248 249 251 252 252 253 253 254 255 256 256 256 257 257 257 257 257 259
238 238 240 238 239 248 247 239 237 235 239 233 233 233 234 230 230 233 234 236 239 242 243 244 247 248 249 251 254 254 255 256 255 257 259 259 260 260 259 258 258 259 259 260
245 242 236 244 239 241 248 243 243 243 244 232 234 234 235 233 236 236 239 240 243 246 247 249 250 250 252 254 255 256 257 257 258 261 261 262 262 262 261 261 261 261 261 261
294 268 240 244 248 253 248 243 241 237 251 239 236 236 236 237 240 240 243 245 247 249 251 253 255 256 257 258 259 259 259 259 261 262 263 264 263 263 263 263 262 262 263 263
274 262 258 253 251 256 241 241 240 245 244 240 244 240 238 239 241 243 246 248 250 253 254 255 256 258 259 260 261 262 261 262 263 264 265 265 266 266 265 264 264 264 264 264
283 263 268 252 259 261 244 245 244 241 241 242 242 239 239 243 245 247 249 252 254 256 257 259 260 261 262 263 263 264 264 265 265 265 265 265 266 266 267 266 265 265 264 265
274 265 267 282 271 261 255 255 248 246 246 244 245 245 247 250 252 253 253 255 256 256 258 261 262 262 263 265 266 265 265 265 266 266 266 266 266 267 267 266 266 265 265 266
273 264 265 270 269 273 262 253 248 247 247 246 248 250 251 254 254 254 256 258 258 261 263 264 264 265 266 267 267 267 267 267 267 267 267 267 267 267 268 267 266 266 266 266
269 262 260 266 261 262 264 253 243 243 244 245 249 252 254 256 256 258 259 260 262 263 265 265 266 267 268 269 269 269 269 269 268 268 269 269 269 268 268 268 268 267 267 267